Location: Arborea
(39.7744°N, 8.5819°E)
Time: 02:44:33
(UTC+00:00)

USA 229 - Pass Details

Date: 29 May 2022
Orbit: 938 x 1274 km, 63.4° (Epoch: 24 May)

Event Time Altitude Azimuth Distance (km) Brightness Sun altitude
Rises 22:04:03 0° 330° (NNW) 3,956 8.0 -25.8°
Reaches altitude 10° 22:06:59 10° 339° (NNW) 3,046 7.1 -26.0°
Maximum altitude 22:13:36 35° 44° (NE) 1,854 5.1 -26.4°
Enters shadow 22:18:28 18° 97° (E) 2,627 5.5 -26.7°
